DELTA 1 DEB

Satellite information

Favourite Embed

Satellite Type and Status

DEBRISIN ORBIT

Key statistics

Satellite DELTA 1 DEB at a glance.

Uptime

17404

Days in orbit

Revolutions

≈ 14.4

Per day

Orbit

SSO

Sun Synchronous Orbit

Inclination

98.8

Latest

Satellite identification and parameters

Extended collection of information and parameters for DELTA 1 DEB.

Object identification

Identified? True

Debris? True

Object name: DELTA 1 DEB

International designator: 1978-026DJ

Object number (NORAD): 12265

Object ID (CCSDS): 12265

Country: UNITED STATES OF AMERICA (US)

Current information (Y/N): Y

RCS size: SMALL

Orbital parameters

Period: 100.249 minutes

Inclination: 98.8436 deg

SMA: 7148.491 km

Apoapsis: 848.512 km

Periapsis: 692.2 km

RAAN: 111.8884 deg

Eccentricy: 0.01093324

Argument of periapsis: 54.0458 deg

Mean anomaly: 5.0315 deg

Mean motion: 14.36419297 rev/day

Mean motion (dot): 0.00004641 rev/day2

B* drag term: 0.0014938311 1/REarth

Two-line elements (TLE)

Creation date: Oct. 28, 2025, 2:18 a.m.

Reference frame: TEME

Reference center: EARTH

Epoch: Oct. 27, 2025, 10:01 a.m. UTC

TLE line 0: 0 DELTA 1 DEB

TLE line 1: 1 12265U 78026DJ 25300.41751839 .00004641 00000-0 14938-2 0 9999

TLE line 2: 2 12265 98.8436 111.8884 0109332 54.0458 5.0315 14.36419297279818

Live tracking on map

Real-time ground track for satellite DELTA 1 DEB.

In-orbit conjunctions

A list of the most updated potential collisions computed for object DELTA 1 DEB.

Target Orbit TCA Probability of collision Miss distance Type
ERS 2 DEB SSO 2025-03-12 22:03:58 0.0001793995 225.0 (m) DEBRIS

Associated space launch

Earth observation satellite

DELTA 1 DEB was lifted into orbit during the mission ‘Delta 2910 | Landsat 3’, on board a Delta 2910 space rocket.

The launch took place on March 5, 1978, 5:54 p.m. from Space Launch Complex 2W.

For more information about the launch, click the button.

Launch to space Delta 2910 | Landsat 3
Delta 2910 | Landsat 3

Agency: N/A

Status: Launch Successful

Launch date: March 5, 1978, 5:54 p.m. UTC

Rocket: Delta 2910

Launch pad: Space Launch Complex 2W

Location: Vandenberg SFB, CA, USA

...

Latest news about this satellite

There are no fresh news available about this satellite. Check back as we update our databases every day.


Newsletter sign-up

Weekly statistics, charts and insights to help you stay on top of the space industry.